TimeEST,TemperatureF,Dew PointF,Humidity,Sea Level PressureIn,VisibilityMPH,Wind Direction,Wind SpeedMPH,Gust SpeedMPH,PrecipitationIn,Events,Conditions,WindDirDegrees,DateUTC
12:53 AM,48.0,39.9,74,30.10,10.0,SSW,6.9,-,N/A,,Clear,210,2013-01-01 05:53:00
1:53 AM,48.9,41.0,74,30.08,10.0,SSW,9.2,-,N/A,,Scattered Clouds,210,2013-01-01 06:53:00
2:53 AM,48.9,41.0,74,30.06,10.0,SSW,5.8,-,N/A,,Mostly Cloudy,210,2013-01-01 07:53:00
3:53 AM,50.0,42.1,74,30.06,10.0,SW,5.8,-,N/A,,Overcast,220,2013-01-01 08:53:00
4:53 AM,51.1,43.0,74,30.06,10.0,WSW,6.9,-,N/A,,Overcast,240,2013-01-01 09:53:00
5:53 AM,51.1,43.0,74,30.05,10.0,SW,8.1,-,N/A,,Overcast,220,2013-01-01 10:53:00
6:53 AM,51.1,43.0,74,30.07,10.0,SW,6.9,-,N/A,,Overcast,220,2013-01-01 11:53:00
7:53 AM,51.1,43.0,74,30.09,10.0,SSW,6.9,-,N/A,,Overcast,210,2013-01-01 12:53:00
8:53 AM,52.0,44.1,74,30.09,10.0,SSW,8.1,-,N/A,,Overcast,210,2013-01-01 13:53:00
9:53 AM,53.1,44.1,71,30.11,10.0,SW,6.9,-,N/A,,Overcast,230,2013-01-01 14:53:00
10:53 AM,53.1,44.1,71,30.10,10.0,SSW,8.1,-,N/A,,Overcast,210,2013-01-01 15:53:00
11:53 AM,53.1,45.0,74,30.05,10.0,SW,8.1,-,N/A,,Overcast,220,2013-01-01 16:53:00
12:53 PM,52.0,46.9,83,30.02,8.0,SW,11.5,-,0.00,Rain,Light Rain,220,2013-01-01 17:53:00
1:53 PM,54.0,50.0,86,29.97,10.0,SW,16.1,24.2,0.00,,Overcast,230,2013-01-01 18:53:00
2:29 PM,55.4,51.8,88,29.99,10.0,SW,12.7,-,N/A,,Overcast,230,2013-01-01 19:29:00
2:30 PM,55.4,51.8,88,29.99,10.0,SW,12.7,-,N/A,,Overcast,230,2013-01-01 19:30:00
2:53 PM,55.0,51.1,86,29.98,10.0,WSW,13.8,-,N/A,,Overcast,240,2013-01-01 19:53:00
3:44 PM,53.6,51.8,94,29.99,10.0,SW,11.5,-,0.00,,Overcast,230,2013-01-01 20:44:00
3:53 PM,54.0,51.1,90,29.98,10.0,SW,9.2,-,0.00,,Overcast,230,2013-01-01 20:53:00
4:53 PM,53.1,50.0,89,29.97,9.0,SW,10.4,-,0.01,,Overcast,230,2013-01-01 21:53:00
5:53 PM,52.0,51.1,97,29.99,5.0,SW,10.4,-,0.02,Rain,Light Rain,230,2013-01-01 22:53:00
6:22 PM,51.8,51.8,100,30.02,6.0,WSW,10.4,-,0.01,Rain,Light Rain,240,2013-01-01 23:22:00
6:48 PM,51.8,51.8,100,30.01,4.0,SW,9.2,-,0.04,Rain,Light Rain,230,2013-01-01 23:48:00
6:53 PM,52.0,51.1,97,30.00,5.0,SW,9.2,-,0.05,Rain,Light Rain,230,2013-01-01 23:53:00
7:53 PM,52.0,51.1,97,29.99,4.0,SW,8.1,-,0.04,Rain,Light Rain,220,2013-01-02 00:53:00
8:00 PM,51.8,51.8,100,30.00,3.0,SW,8.1,-,0.01,Rain,Light Rain,220,2013-01-02 01:00:00
8:08 PM,51.8,51.8,100,29.99,2.5,SSW,8.1,-,0.02,Rain,Light Rain,210,2013-01-02 01:08:00
8:17 PM,51.8,51.8,100,29.99,3.0,SW,8.1,-,0.02,Rain,Light Rain,220,2013-01-02 01:17:00
8:53 PM,52.0,51.1,97,29.97,4.0,SSW,6.9,-,0.02,,Overcast,200,2013-01-02 01:53:00
9:53 PM,52.0,51.1,97,29.96,3.0,SSW,4.6,-,0.00,Rain,Light Rain,200,2013-01-02 02:53:00
10:02 PM,51.8,51.8,100,29.98,2.5,SSW,4.6,-,0.01,Rain,Light Rain,200,2013-01-02 03:02:00
10:31 PM,51.8,51.8,100,29.96,1.8,Calm,Calm,-,0.02,,Overcast,0,2013-01-02 03:31:00
10:53 PM,52.0,51.1,97,29.96,1.5,Calm,Calm,-,0.03,Rain,Light Rain,0,2013-01-02 03:53:00
11:00 PM,51.8,51.8,100,29.96,1.5,Calm,Calm,-,0.00,,Overcast,0,2013-01-02 04:00:00
11:19 PM,51.8,51.8,100,29.95,0.5,Calm,Calm,-,0.00,Fog-Rain,Light Rain,0,2013-01-02 04:19:00
11:49 PM,51.8,51.8,100,29.95,0.2,North,3.5,-,0.01,Fog,Fog,360,2013-01-02 04:49:00
11:53 PM,52.0,51.1,97,29.94,0.5,North,4.6,-,0.01,Fog,Fog,360,2013-01-02 04:53:00